Погода в Ресистенсии

Аргентина     27°27′43″S   58°58′58″W
темп.,
°C
ветер,
м/с
пор.,
м/с
влажн.,
%
обл.,
%
осадки,
мм/ч
давл.,
гПа
погр.,
м
14 июня, пн
пн1400:00+14св38690 0.0 1017165
03:00+13ссв24730 0.0 101780
06:00+12ссв23740 0.0 101754
09:00+14св23670 0.0 1019105
12:00+22ссв12440 0.0 1020511
15:00+26ссз01345 0.0 10171078
18:00+21юв224820 0.0 101714
21:00+17юв226081 0.0 102032
15 июня, вт
вт1500:00+16юв2268100 0.0 102130
03:00+14ю2275100 0.0 102144
06:00+13ю2478100 0.0 102192
09:00+14ю377685 0.0 1024224
12:00+19ююв4557100 0.0 1024694
15:00+21ююв4547100 0.0 10221192
18:00+18ююв486086 0.0 1022688
21:00+15ююв410715 0.0 1025654
16 июня, ср
ср1600:00+13ююв411787 0.0 1025507
03:00+10ю3781100 0.0 1024281
06:00+10ююв397526 0.0 1023363
09:00+10ююв41173100 0.0 1025392
12:00+12юв4662100 0.0 1026652
15:00+14ююв2655100 0.0 1024901
18:00+14ююв2753100 0.0 1024532
21:00+14юв484597 0.0 1025833
17 июня, чт
чт1700:00+12юв3849100 0.0 1026646
03:00+11ююв3851100 0.0 1025578
06:00+10ююв385884 0.0 1025519
09:00+10ююв3859100 0.0 1027487
12:00+12ююв3551100 0.0 1027689
15:00+13ююв2448100 0.0 1025860
18:00+13ю3649100 0.0 1025597
21:00+12ююв3852100 0.0 1026566
18 июня, пт
пт1800:00+11ююв3953100 0.0 1026531
03:00+10ююв3756100 0.0 1027412
06:00+10ююв3758100 0.0 1026378
09:00+9ююв3760100 0.0 1028324
12:00+13юв355374 0.0 1029672
15:00+15юв3442100 0.0 10261292
18:00+14ю2647100 0.0 1026313
21:00+13ююв3850100 0.0 1026612